,,PA_Meas_PMT16A,,PR_Meas_QMR101_102,,RH_Meas_QMH101,,SR_Meas_QMS101,,TA_Meas_QMH101,,GenWind,,GenWind,
time,status,PA,status,PR,status,RH,status,SR,status,TA,status,DirAvg,status,SpdAvg,
2011-07-27, 00:00:05,VALID,918.552,VALID,0,VALID,95.1097,VALID,0,VALID,19.8573,VALID,21,VALID,0,
2011-07-27, 00:01:05,VALID,918.579,VALID,0,VALID,95.4071,VALID,0,VALID,19.9353,VALID,21,VALID,0.415234,
2011-07-27, 00:02:05,VALID,918.576,VALID,0,VALID,95.5443,VALID,0,VALID,19.9938,VALID,21,VALID,0.217187,
2011-07-27, 00:03:05,VALID,918.632,VALID,0,VALID,95.4985,VALID,0,VALID,19.9953,VALID,21,VALID,0.0425781,
2011-07-27, 00:04:05,VALID,918.623,VALID,0,VALID,95.5443,VALID,0,VALID,19.9953,VALID,21,VALID,0,
2011-07-27, 00:05:05,VALID,918.629,VALID,0,VALID,95.4604,VALID,0,VALID,19.9548,VALID,21,VALID,0,
2011-07-27, 00:06:05,VALID,918.62,VALID,0,VALID,95.4833,VALID,0,VALID,19.9563,VALID,21,VALID,0,
2011-07-27, 00:07:05,VALID,918.603,VALID,0,VALID,95.4985,VALID,0,VALID,19.9353,VALID,21,VALID,0,
2011-07-27, 00:08:05,VALID,918.604,VALID,0,VALID,95.3613,VALID,0,VALID,19.9368,VALID,21,VALID,0,
2011-07-27, 00:09:05,VALID,918.603,VALID,0,VALID,95.529,VALID,0,VALID,19.9563,VALID,21,VALID,0,
2011-07-27, 00:10:05,VALID,918.591,VALID,0,VALID,95.6129,VALID,0,VALID,19.9743,VALID,21,VALID,0,
2011-07-27, 00:11:05,VALID,918.591,VALID,0,VALID,95.5748,VALID,0,VALID,19.9938,VALID,21,VALID,0.13125,
2011-07-27, 00:12:05,VALID,918.561,VALID,0,VALID,94.7667,VALID,0,VALID,19.7598,VALID,21,VALID,0.192188,
2011-07-27, 00:13:05,VALID,918.562,VALID,0,VALID,94.9115,VALID,0,VALID,19.7403,VALID,21,VALID,0,
2011-07-27, 00:14:05,VALID,918.553,VALID,0,VALID,95.0183,VALID,0,VALID,19.7223,VALID,21,VALID,0,
2011-07-27, 00:15:05,VALID,918.57,VALID,0,VALID,95.0945,VALID,0,VALID,19.6623,VALID,21,VALID,0,
2011-07-27, 00:16:05,VALID,918.522,VALID,0,VALID,95.1707,VALID,0,VALID,19.7028,VALID,21,VALID,0,
2011-07-27, 00:17:05,VALID,918.543,VALID,0,VALID,95.3079,VALID,0,VALID,19.7208,VALID,21,VALID,0.0890625,
2011-07-27, 00:18:05,VALID,918.526,VALID,0,VALID,95.4528,VALID,0,VALID,19.7613,VALID,21,VALID,0,
2011-07-27, 00:19:05,VALID,918.486,VALID,0,VALID,95.1174,VALID,0,VALID,19.6833,VALID,21,VALID,0,
2011-07-27, 00:20:05,VALID,918.512,VALID,0,VALID,94.1568,VALID,0,VALID,19.4493,VALID,21,VALID,0.217187,
2011-07-27, 00:21:05,VALID,918.469,VALID,0,VALID,94.6066,VALID,0,VALID,19.4088,VALID,21,VALID,0.369922,
2011-07-27, 00:22:05,VALID,918.457,VALID,0,VALID,95.3537,VALID,0,VALID,19.5273,VALID,21,VALID,0.646875,
2011-07-27, 00:23:05,VALID,918.445,VALID,0,VALID,95.8187,VALID,0,VALID,19.6443,VALID,21,VALID,0.575,
2011-07-27, 00:24:05,VALID,918.439,VALID,0,VALID,95.9407,VALID,0,VALID,19.6833,VALID,21,VALID,0.410156,
2011-07-27, 00:25:05,VALID,918.403,VALID,0,VALID,96.0779,VALID,0,VALID,19.7223,VALID,21,VALID,0.371094,
2011-07-27, 00:26:05,VALID,918.419,VALID,0,VALID,96.1389,VALID,0,VALID,19.7403,VALID,21,VALID,0.330469,
2011-07-27, 00:27:05,VALID,918.398,VALID,0,VALID,96.1694,VALID,0,VALID,19.7403,VALID,21,VALID,0.219531,
2011-07-27, 00:28:05,VALID,918.394,VALID,0,VALID,96.2151,VALID,0,VALID,19.7208,VALID,21,VALID,0.0121094,
2011-07-27, 00:29:05,VALID,918.387,VALID,0,VALID,96.238,VALID,0,VALID,19.7403,VALID,21,VALID,0.321094,
2011-07-27, 00:30:05,VALID,918.404,VALID,0,VALID,96.2304,VALID,0,VALID,19.7223,VALID,21,VALID,0.274609,
2011-07-27, 00:31:05,VALID,918.405,VALID,0,VALID,96.2075,VALID,0,VALID,19.6833,VALID,21,VALID,0.228516,
2011-07-27, 00:32:05,VALID,918.394,VALID,0,VALID,96.1846,VALID,0,VALID,19.6038,VALID,21,VALID,0.282422,
2011-07-27, 00:33:05,VALID,918.381,VALID,0,VALID,96.2761,VALID,0,VALID,19.6038,VALID,21,VALID,0.667578,
2011-07-27, 00:34:05,VALID,918.34,VALID,0,VALID,96.3752,VALID,0,VALID,19.6233,VALID,21,VALID,0.321484,
2011-07-27, 00:35:05,VALID,918.34,VALID,0,VALID,96.4667,VALID,0,VALID,19.6818,VALID,21,VALID,0.065625,
2011-07-27, 00:36:05,VALID,918.315,VALID,0,VALID,96.4743,VALID,0,VALID,19.6818,VALID,21,VALID,0,
2011-07-27, 00:37:05,VALID,918.322,VALID,0,VALID,96.4286,VALID,0,VALID,19.6623,VALID,21,VALID,0,
2011-07-27, 00:38:05,VALID,918.316,VALID,0,VALID,96.4743,VALID,0,VALID,19.6638,VALID,21,VALID,0.20625,
2011-07-27, 00:39:04,VALID,918.307,VALID,0,VALID,96.4896,VALID,0,VALID,19.6638,VALID,21,VALID,0.521484,
2011-07-27, 00:40:04,VALID,918.307,VALID,0,VALID,96.5429,VALID,0,VALID,19.6833,VALID,21,VALID,0.399219,
2011-07-27, 00:41:04,VALID,918.331,VALID,0,VALID,96.5582,VALID,0,VALID,19.6818,VALID,21,VALID,0,
2011-07-27, 00:42:04,VALID,918.299,VALID,0,VALID,96.4133,VALID,0,VALID,19.6053,VALID,21,VALID,0,
2011-07-27, 00:43:04,VALID,918.281,VALID,0,VALID,96.4896,VALID,0,VALID,19.6053,VALID,21,VALID,0,
2011-07-27, 00:44:04,VALID,918.24,VALID,0,VALID,96.3447,VALID,0,VALID,19.5078,VALID,21,VALID,0.425,
2011-07-27, 00:45:04,VALID,918.252,VALID,0,VALID,96.4591,VALID,0,VALID,19.4883,VALID,21,VALID,0.442578,
2011-07-27, 00:46:04,VALID,918.231,VALID,0,VALID,96.3752,VALID,0,VALID,19.4478,VALID,21,VALID,0.604297,
2011-07-27, 00:47:04,VALID,918.233,VALID,0,VALID,96.4667,VALID,0,VALID,19.3908,VALID,21,VALID,0.637891,
2011-07-27, 00:48:04,VALID,918.276,VALID,0,VALID,96.4286,VALID,0,VALID,19.3518,VALID,21,VALID,0.501953,
2011-07-27, 00:49:04,VALID,918.331,VALID,0,VALID,96.4667,VALID,0,VALID,19.3128,VALID,21,VALID,0.403125,
2011-07-27, 00:50:04,VALID,918.331,VALID,0,VALID,96.4896,VALID,0,VALID,19.3143,VALID,21,VALID,0.427344,
2011-07-27, 00:51:04,VALID,918.324,VALID,0,VALID,96.5353,VALID,0,VALID,19.2753,VALID,21,VALID,0.766406,
2011-07-27, 00:52:04,VALID,918.331,VALID,0,VALID,96.5124,VALID,0,VALID,19.2543,VALID,21,VALID,0.560938,
2011-07-27, 00:53:04,VALID,918.336,VALID,0,VALID,96.7107,VALID,0,VALID,19.3128,VALID,21,VALID,0.476172,
2011-07-27, 00:54:04,VALID,918.31,VALID,0,VALID,96.5887,VALID,0,VALID,19.3128,VALID,21,VALID,0.31875,
2011-07-27, 00:55:04,VALID,918.327,VALID,0,VALID,96.5277,VALID,0,VALID,19.2153,VALID,21,VALID,0.851563,
2011-07-27, 00:56:04,VALID,918.32,VALID,0,VALID,96.6497,VALID,0,VALID,19.2543,VALID,21,VALID,0.551953,
2011-07-27, 00:57:04,VALID,918.304,VALID,0,VALID,96.642,VALID,0,VALID,19.2558,VALID,21,VALID,0.470703,
2011-07-27, 00:58:04,VALID,918.283,VALID,0,VALID,96.6115,VALID,0,VALID,19.2348,VALID,21,VALID,0.43125,
2011-07-27, 00:59:04,VALID,918.255,VALID,0,VALID,96.6573,VALID,0,VALID,19.2543,VALID,21,VALID,0.477344,
2011-07-27, 01:00:04,VALID,918.254,VALID,0,VALID,96.6954,VALID,0,VALID,19.2543,VALID,20,VALID,0.512891,
2011-07-27, 01:01:04,VALID,918.176,VALID,0,VALID,96.7564,VALID,0,VALID,19.2933,VALID,20,VALID,0.432813,
2011-07-27, 01:02:04,VALID,918.218,VALID,0,VALID,96.6649,VALID,0,VALID,19.2738,VALID,20,VALID,0.0492188,
2011-07-27, 01:03:04,VALID,918.222,VALID,0,VALID,96.7183,VALID,0,VALID,19.2738,VALID,20,VALID,0.0421875,
2011-07-27, 01:04:04,VALID,918.216,VALID,0,VALID,96.7107,VALID,0,VALID,19.2933,VALID,20,VALID,0.287891,
2011-07-27, 01:05:04,VALID,918.18,VALID,0,VALID,96.6802,VALID,0,VALID,19.2933,VALID,20,VALID,0.226172,
2011-07-27, 01:06:04,VALID,918.17,VALID,0,VALID,96.642,VALID,0,VALID,19.2948,VALID,20,VALID,0.216406,
2011-07-27, 01:07:04,VALID,918.166,VALID,0,VALID,96.5963,VALID,0,VALID,19.2543,VALID,20,VALID,0,
2011-07-27, 01:08:04,VALID,918.159,VALID,0,VALID,96.5506,VALID,0,VALID,19.2153,VALID,20,VALID,0,
2011-07-27, 01:09:04,VALID,918.149,VALID,0,VALID,96.4591,VALID,0,VALID,19.1778,VALID,20,VALID,0,
2011-07-27, 01:10:04,VALID,918.135,VALID,0,VALID,96.4286,VALID,0,VALID,19.0983,VALID,20,VALID,0.160156,
2011-07-27, 01:11:04,VALID,918.111,VALID,0,VALID,96.3829,VALID,0,VALID,19.0788,VALID,20,VALID,0.213281,
2011-07-27, 01:12:04,VALID,918.122,VALID,0,VALID,96.3219,VALID,0,VALID,19.0398,VALID,20,VALID,0.430859,
2011-07-27, 01:13:04,VALID,918.096,VALID,0,VALID,96.2761,VALID,0,VALID,19.0008,VALID,20,VALID,0.544922,
2011-07-27, 01:14:04,VALID,918.073,VALID,0,VALID,96.2075,VALID,0,VALID,18.9229,VALID,20,VALID,0.480859,
2011-07-27, 01:15:04,VALID,918.057,VALID,0,VALID,96.2456,VALID,0,VALID,18.8839,VALID,20,VALID,0.442969,
2011-07-27, 01:16:04,VALID,918.06,VALID,0,VALID,96.1999,VALID,0,VALID,18.8644,VALID,20,VALID,0.422266,
2011-07-27, 01:17:04,VALID,918.032,VALID,0,VALID,96.1465,VALID,0,VALID,18.8059,VALID,20,VALID,0.273047,
2011-07-27, 01:18:04,VALID,918.014,VALID,0,VALID,96.1618,VALID,0,VALID,18.7669,VALID,20,VALID,0.329688,
2011-07-27, 01:19:04,VALID,917.99,VALID,0,VALID,96.1694,VALID,0,VALID,18.746,VALID,20,VALID,0.426953,
2011-07-27, 01:20:04,VALID,917.992,VALID,0,VALID,96.1999,VALID,0,VALID,18.7474,VALID,20,VALID,0.524609,
2011-07-27, 01:21:04,VALID,917.976,VALID,0,VALID,96.2533,VALID,0,VALID,18.7474,VALID,20,VALID,0.501953,
2011-07-27, 01:22:04,VALID,917.961,VALID,0,VALID,96.3066,VALID,0,VALID,18.7669,VALID,20,VALID,0.202734,
2011-07-27, 01:23:04,VALID,917.942,VALID,0,VALID,96.3295,VALID,0,VALID,18.7864,VALID,20,VALID,0.000390625,
2011-07-27, 01:24:04,VALID,917.958,VALID,0,VALID,96.3829,VALID,0,VALID,18.7864,VALID,20,VALID,0.400391,
2011-07-27, 01:25:04,VALID,917.953,VALID,0,VALID,96.4057,VALID,0,VALID,18.8059,VALID,20,VALID,0.471484,
2011-07-27, 01:26:04,VALID,917.915,VALID,0,VALID,96.4667,VALID,0,VALID,18.8463,VALID,20,VALID,0.551172,
2011-07-27, 01:27:04,VALID,917.869,VALID,0,VALID,96.4896,VALID,0,VALID,18.8644,VALID,20,VALID,0.244922,
2011-07-27, 01:28:04,VALID,917.829,VALID,0,VALID,96.5201,VALID,0,VALID,18.8644,VALID,20,VALID,0.371484,
2011-07-27, 01:29:04,VALID,917.825,VALID,0,VALID,96.5506,VALID,0,VALID,18.8839,VALID,20,VALID,0.558594,
2011-07-27, 01:30:04,VALID,917.786,VALID,0,VALID,96.5963,VALID,0,VALID,18.9229,VALID,20,VALID,0.296484,
2011-07-27, 01:31:04,VALID,917.805,VALID,0,VALID,96.6878,VALID,0,VALID,19.0008,VALID,20,VALID,0.392188,
2011-07-27, 01:32:04,VALID,917.783,VALID,0,VALID,96.6802,VALID,0,VALID,19.0413,VALID,20,VALID,0.346875,
2011-07-27, 01:33:04,VALID,917.795,VALID,0,VALID,96.7183,VALID,0,VALID,19.0593,VALID,20,VALID,0.496875,
2011-07-27, 01:34:04,VALID,917.788,VALID,0,VALID,96.7716,VALID,0,VALID,19.0774,VALID,20,VALID,0.407031,
2011-07-27, 01:35:04,VALID,917.789,VALID,0,VALID,96.825,VALID,0,VALID,19.1568,VALID,20,VALID,0.353906,
2011-07-27, 01:36:04,VALID,917.782,VALID,0,VALID,96.8479,VALID,0,VALID,19.1958,VALID,20,VALID,0.214453,
2011-07-27, 01:37:04,VALID,917.78,VALID,0,VALID,96.886,VALID,0,VALID,19.2738,VALID,20,VALID,0.171484,
2011-07-27, 01:38:04,VALID,917.762,VALID,0,VALID,96.8936,VALID,0,VALID,19.3323,VALID,20,VALID,0.470703,
2011-07-27, 01:39:04,VALID,917.708,VALID,0,VALID,96.9012,VALID,0,VALID,19.3518,VALID,20,VALID,0.357422,
2011-07-27, 01:40:04,VALID,917.648,VALID,0,VALID,96.886,VALID,0,VALID,19.3518,VALID,20,VALID,0.344531,
2011-07-27, 01:41:04,VALID,917.642,VALID,0,VALID,96.8707,VALID,0,VALID,19.3713,VALID,20,VALID,0.329688,
2011-07-27, 01:42:04,VALID,917.637,VALID,0,VALID,96.8403,VALID,0,VALID,19.3323,VALID,20,VALID,0.395312,
2011-07-27, 01:43:04,VALID,917.648,VALID,0,VALID,96.825,VALID,0,VALID,19.3338,VALID,20,VALID,0,
2011-07-27, 01:44:04,VALID,917.613,VALID,0,VALID,96.8479,VALID,0,VALID,19.3128,VALID,20,VALID,0.272266,
2011-07-27, 01:45:04,VALID,917.655,VALID,0,VALID,96.8555,VALID,0,VALID,19.2738,VALID,20,VALID,0.0257812,
2011-07-27, 01:46:04,VALID,917.638,VALID,0,VALID,96.8326,VALID,0,VALID,19.2738,VALID,20,VALID,0,
2011-07-27, 01:47:04,VALID,917.636,VALID,0,VALID,96.8631,VALID,0,VALID,19.2543,VALID,20,VALID,0.399609,
2011-07-27, 01:48:04,VALID,917.648,VALID,0,VALID,96.8326,VALID,0,VALID,19.2153,VALID,20,VALID,0.423047,
2011-07-27, 01:49:04,VALID,917.639,VALID,0,VALID,96.8479,VALID,0,VALID,19.1958,VALID,20,VALID,0.40625,
2011-07-27, 01:50:04,VALID,917.631,VALID,0,VALID,96.8631,VALID,0,VALID,19.1958,VALID,20,VALID,0.524219,
2011-07-27, 01:51:04,VALID,917.599,VALID,0,VALID,96.9241,VALID,0,VALID,19.1958,VALID,20,VALID,0.332031,
2011-07-27, 01:52:04,VALID,917.561,VALID,0,VALID,96.947,VALID,0,VALID,19.2348,VALID,20,VALID,0.187109,
2011-07-27, 01:53:04,VALID,917.514,VALID,0,VALID,96.9775,VALID,0,VALID,19.2348,VALID,20,VALID,0.184766,
2011-07-27, 01:54:04,VALID,917.491,VALID,0,VALID,96.9165,VALID,0,VALID,19.1958,VALID,20,VALID,0.305859,
2011-07-27, 01:55:04,VALID,917.475,VALID,0,VALID,96.9165,VALID,0,VALID,19.1749,VALID,20,VALID,0.671484,
2011-07-27, 01:56:04,VALID,917.502,VALID,0,VALID,96.9546,VALID,0,VALID,19.1958,VALID,20,VALID,0.260938,
2011-07-27, 01:57:04,VALID,917.503,VALID,0,VALID,96.9698,VALID,0,VALID,19.2153,VALID,20,VALID,0.375391,
2011-07-27, 01:58:04,VALID,917.523,VALID,0,VALID,96.9927,VALID,0,VALID,19.2153,VALID,20,VALID,0.777344,
2011-07-27, 01:59:04,VALID,917.503,VALID,0,VALID,96.9698,VALID,0,VALID,19.1944,VALID,20,VALID,0.587109,
2011-07-27, 02:00:04,VALID,917.503,VALID,0,VALID,97.0003,VALID,0,VALID,19.2153,VALID,20,VALID,0.630078,
2011-07-27, 02:01:04,VALID,917.51,VALID,0,VALID,97.008,VALID,0,VALID,19.2153,VALID,20,VALID,0.0707031,
2011-07-27, 02:02:04,VALID,917.527,VALID,0,VALID,96.9851,VALID,0,VALID,19.1944,VALID,20,VALID,0,
2011-07-27, 02:03:04,VALID,917.517,VALID,0,VALID,96.9622,VALID,0,VALID,19.1763,VALID,20,VALID,1.05234,
2011-07-27, 02:04:04,VALID,917.511,VALID,0,VALID,96.9622,VALID,0,VALID,19.1373,VALID,20,VALID,0.769922,
2011-07-27, 02:05:04,VALID,917.519,VALID,0,VALID,97.0232,VALID,0,VALID,19.1373,VALID,20,VALID,0.536328,
2011-07-27, 02:06:04,VALID,917.537,VALID,0,VALID,97.0385,VALID,0,VALID,19.1373,VALID,20,VALID,0.727344,
2011-07-27, 02:07:04,VALID,917.53,VALID,0,VALID,97.0461,VALID,0,VALID,19.1373,VALID,20,VALID,0.764063,
2011-07-27, 02:08:04,VALID,917.554,VALID,0,VALID,97.0385,VALID,0,VALID,19.1178,VALID,20,VALID,0.566797,
2011-07-27, 02:09:04,VALID,917.555,VALID,0,VALID,97.0308,VALID,0,VALID,19.1178,VALID,20,VALID,0.412891,
2011-07-27, 02:10:04,VALID,917.545,VALID,0,VALID,97.0156,VALID,0,VALID,19.0788,VALID,20,VALID,0.422266,
2011-07-27, 02:11:04,VALID,917.525,VALID,0,VALID,97.0461,VALID,0,VALID,19.0788,VALID,20,VALID,0.402344,
2011-07-27, 02:12:04,VALID,917.516,VALID,0,VALID,97.0537,VALID,0,VALID,19.0593,VALID,21,VALID,0.878125,
2011-07-27, 02:13:04,VALID,917.507,VALID,0,VALID,97.0461,VALID,0,VALID,19.0398,VALID,21,VALID,0.805078,
2011-07-27, 02:14:04,VALID,917.484,VALID,0,VALID,97.0842,VALID,0,VALID,19.0593,VALID,21,VALID,0.328906,
2011-07-27, 02:15:04,VALID,917.451,VALID,0,VALID,97.0842,VALID,0,VALID,19.0593,VALID,21,VALID,0.816016,
2011-07-27, 02:16:04,VALID,917.409,VALID,0,VALID,97.1147,VALID,0,VALID,19.0398,VALID,21,VALID,0.51875,
2011-07-27, 02:17:04,VALID,917.419,VALID,0,VALID,97.1223,VALID,0,VALID,19.0398,VALID,21,VALID,0.538672,
2011-07-27, 02:18:04,VALID,917.383,VALID,0,VALID,97.1147,VALID,0,VALID,19.0398,VALID,21,VALID,0.503906,
2011-07-27, 02:19:04,VALID,917.388,VALID,0,VALID,97.1604,VALID,0,VALID,19.0788,VALID,22,VALID,0.693359,
2011-07-27, 02:20:04,VALID,917.427,VALID,0,VALID,97.1528,VALID,0,VALID,19.0788,VALID,147,VALID,0.790234,
2011-07-27, 02:21:04,VALID,917.433,VALID,0,VALID,97.1681,VALID,0,VALID,19.0788,VALID,154,VALID,0.932031,
2011-07-27, 02:22:04,VALID,917.432,VALID,0,VALID,97.1833,VALID,0,VALID,19.0983,VALID,173,VALID,0.876172,
2011-07-27, 02:23:04,VALID,917.461,VALID,0,VALID,97.1833,VALID,0,VALID,19.1178,VALID,173,VALID,0.361328,
2011-07-27, 02:24:04,VALID,917.398,VALID,0,VALID,97.1909,VALID,0,VALID,19.1373,VALID,173,VALID,0.235938,
2011-07-27, 02:25:04,VALID,917.375,VALID,0,VALID,97.1833,VALID,0,VALID,19.1568,VALID,173,VALID,0.550391,
2011-07-27, 02:26:04,VALID,917.357,VALID,0,VALID,97.1604,VALID,0,VALID,19.1373,VALID,173,VALID,0.369141,
2011-07-27, 02:27:04,VALID,917.341,VALID,0,VALID,97.1757,VALID,0,VALID,19.1178,VALID,173,VALID,0.860156,
2011-07-27, 02:28:04,VALID,917.325,VALID,0,VALID,97.1528,VALID,0,VALID,19.1178,VALID,109,VALID,0.779688,
2011-07-27, 02:29:04,VALID,917.302,VALID,0,VALID,97.1757,VALID,0,VALID,19.1583,VALID,109,VALID,0.777734,
2011-07-27, 02:30:04,VALID,917.306,VALID,0,VALID,97.1986,VALID,0,VALID,19.1583,VALID,109,VALID,0.235938,
2011-07-27, 02:31:04,VALID,917.312,VALID,0,VALID,97.1909,VALID,0,VALID,19.1373,VALID,109,VALID,0.769922,
2011-07-27, 02:32:04,VALID,917.277,VALID,0,VALID,97.2138,VALID,0,VALID,19.1388,VALID,126,VALID,0.508203,
2011-07-27, 02:33:04,VALID,917.297,VALID,0,VALID,97.2062,VALID,0,VALID,19.1373,VALID,126,VALID,0.275391,
2011-07-27, 02:34:04,VALID,917.298,VALID,0,VALID,97.229,VALID,0,VALID,19.1568,VALID,126,VALID,0.0929687,
2011-07-27, 02:35:04,VALID,917.307,VALID,0,VALID,97.1833,VALID,0,VALID,19.1568,VALID,126,VALID,0.548047,
2011-07-27, 02:36:04,VALID,917.316,VALID,0,VALID,97.1681,VALID,0,VALID,19.1178,VALID,126,VALID,0.748047,
2011-07-27, 02:37:04,VALID,917.332,VALID,0,VALID,97.1604,VALID,0,VALID,19.0983,VALID,126,VALID,0.879687,
2011-07-27, 02:38:04,VALID,917.328,VALID,0,VALID,97.1604,VALID,0,VALID,19.0788,VALID,126,VALID,0.660937,
2011-07-27, 02:39:04,VALID,917.329,VALID,0,VALID,97.1299,VALID,0,VALID,19.0398,VALID,126,VALID,0.480078,
2011-07-27, 02:40:04,VALID,917.363,VALID,0,VALID,97.1757,VALID,0,VALID,19.0203,VALID,126,VALID,0.169141,
2011-07-27, 02:41:04,VALID,917.287,VALID,0,VALID,97.1833,VALID,0,VALID,19.0203,VALID,126,VALID,0,
2011-07-27, 02:42:04,VALID,917.318,VALID,0,VALID,97.1757,VALID,0,VALID,19.0008,VALID,126,VALID,0,
2011-07-27, 02:43:04,VALID,917.281,VALID,0,VALID,97.2138,VALID,0,VALID,19.0008,VALID,126,VALID,0,
2011-07-27, 02:44:04,VALID,917.262,VALID,0,VALID,97.2214,VALID,0,VALID,19.0008,VALID,126,VALID,0,
2011-07-27, 02:45:04,VALID,917.274,VALID,0,VALID,97.2062,VALID,0,VALID,18.9814,VALID,126,VALID,0,
2011-07-27, 02:46:04,VALID,917.261,VALID,0,VALID,97.2748,VALID,0,VALID,19.0203,VALID,126,VALID,0.244922,
2011-07-27, 02:47:04,VALID,917.263,VALID,0,VALID,97.2519,VALID,0,VALID,19.0008,VALID,126,VALID,0.00273437,
2011-07-27, 02:48:04,VALID,917.226,VALID,0,VALID,97.229,VALID,0,VALID,19.0218,VALID,126,VALID,0,
2011-07-27, 02:49:04,VALID,917.238,VALID,0,VALID,97.2443,VALID,0,VALID,19.0008,VALID,126,VALID,0,
2011-07-27, 02:50:04,VALID,917.227,VALID,0,VALID,97.229,VALID,0,VALID,18.9814,VALID,126,VALID,0,
2011-07-27, 02:51:04,VALID,917.174,VALID,0,VALID,97.2443,VALID,0,VALID,19.0023,VALID,126,VALID,0.310547,
2011-07-27, 02:52:04,VALID,917.139,VALID,0,VALID,97.2367,VALID,0,VALID,18.9619,VALID,126,VALID,0.352344,
2011-07-27, 02:53:04,VALID,917.087,VALID,0,VALID,97.229,VALID,0,VALID,18.9424,VALID,126,VALID,0.35,
2011-07-27, 02:54:04,VALID,917.076,VALID,0,VALID,97.1986,VALID,0,VALID,18.8839,VALID,126,VALID,0.308984,
2011-07-27, 02:55:04,VALID,917.053,VALID,0,VALID,97.1681,VALID,0,VALID,18.8254,VALID,126,VALID,0.678125,
2011-07-27, 02:56:04,VALID,917.098,VALID,0,VALID,97.1909,VALID,0,VALID,18.785,VALID,126,VALID,0.533203,
2011-07-27, 02:57:04,VALID,917.104,VALID,0,VALID,97.2062,VALID,0,VALID,18.7669,VALID,126,VALID,0.116797,
2011-07-27, 02:58:04,VALID,917.123,VALID,0,VALID,97.2367,VALID,0,VALID,18.7265,VALID,126,VALID,0.410156,
2011-07-27, 02:59:04,VALID,917.11,VALID,0,VALID,97.2367,VALID,0,VALID,18.7474,VALID,126,VALID,0.594531,
2011-07-27, 03:00:04,VALID,917.102,VALID,0,VALID,97.2748,VALID,0,VALID,18.746,VALID,126,VALID,0.806641,
2011-07-27, 03:01:04,VALID,917.063,VALID,0,VALID,97.3053,VALID,0,VALID,18.7474,VALID,126,VALID,0.678516,
2011-07-27, 03:02:04,VALID,917.055,VALID,0,VALID,97.2977,VALID,0,VALID,18.7669,VALID,126,VALID,0.56875,
2011-07-27, 03:03:04,VALID,917.032,VALID,0,VALID,97.3281,VALID,0,VALID,18.7669,VALID,126,VALID,0.527344,
2011-07-27, 03:04:04,VALID,917.003,VALID,0,VALID,97.3358,VALID,0.107441,VALID,18.7864,VALID,126,VALID,0.514844,
2011-07-27, 03:05:04,VALID,916.988,VALID,0,VALID,97.3205,VALID,0,VALID,18.7864,VALID,126,VALID,0.481641,
2011-07-27, 03:06:04,VALID,916.975,VALID,0,VALID,97.3358,VALID,0,VALID,18.7864,VALID,126,VALID,0.530469,
2011-07-27, 03:07:04,VALID,916.94,VALID,0,VALID,97.3281,VALID,0,VALID,18.7669,VALID,126,VALID,0.709766,
2011-07-27, 03:08:04,VALID,916.907,VALID,0,VALID,97.3129,VALID,0,VALID,18.7474,VALID,127,VALID,0.782031,
2011-07-27, 03:09:04,VALID,916.857,VALID,0,VALID,97.3739,VALID,0,VALID,18.7669,VALID,166,VALID,0.545703,
2011-07-27, 03:10:04,VALID,916.849,VALID,0,VALID,97.3739,VALID,0,VALID,18.7864,VALID,166,VALID,0.737109,
2011-07-27, 03:11:04,VALID,916.848,VALID,0,VALID,97.4044,VALID,0,VALID,18.8254,VALID,128,VALID,0.980078,
2011-07-27, 03:12:04,VALID,916.785,VALID,0,VALID,97.412,VALID,0,VALID,18.8644,VALID,137,VALID,1.27109,
2011-07-27, 03:13:04,VALID,916.749,VALID,0,VALID,97.4044,VALID,0,VALID,18.8644,VALID,122,VALID,0.537109,
2011-07-27, 03:14:04,VALID,916.713,VALID,0,VALID,97.3815,VALID,0,VALID,18.8644,VALID,122,VALID,0.827734,
2011-07-27, 03:15:04,VALID,916.655,VALID,0,VALID,97.3815,VALID,0,VALID,18.8644,VALID,125,VALID,0.813281,
2011-07-27, 03:16:04,VALID,916.672,VALID,0,VALID,97.3891,VALID,0,VALID,18.8853,VALID,149,VALID,1.1418,
2011-07-27, 03:17:04,VALID,916.675,VALID,0,VALID,97.3815,VALID,0,VALID,18.8839,VALID,131,VALID,0.524219,
2011-07-27, 03:18:04,VALID,916.655,VALID,0,VALID,97.3815,VALID,0,VALID,18.8839,VALID,130,VALID,1.15469,
2011-07-27, 03:19:04,VALID,916.636,VALID,0,VALID,97.3891,VALID,0,VALID,18.9034,VALID,151,VALID,0.908203,
2011-07-27, 03:20:04,VALID,916.601,VALID,0,VALID,97.412,VALID,0,VALID,18.9229,VALID,123,VALID,1.19062,
2011-07-27, 03:21:04,VALID,916.566,VALID,0,VALID,97.412,VALID,0,VALID,18.9034,VALID,138,VALID,0.967969,
2011-07-27, 03:22:04,VALID,916.566,VALID,0,VALID,97.3968,VALID,0,VALID,18.9229,VALID,141,VALID,1.37148,
2011-07-27, 03:23:04,VALID,916.561,VALID,0,VALID,97.4044,VALID,0,VALID,18.9229,VALID,122,VALID,1.22812,
2011-07-27, 03:24:04,VALID,916.538,VALID,0,VALID,97.4044,VALID,0,VALID,18.9229,VALID,148,VALID,0.624609,
2011-07-27, 03:25:04,VALID,916.505,VALID,0,VALID,97.3891,VALID,0,VALID,18.9034,VALID,125,VALID,1.12773,
2011-07-27, 03:26:04,VALID,916.462,VALID,0,VALID,97.3968,VALID,0,VALID,18.9034,VALID,123,VALID,1.03477,
2011-07-27, 03:27:04,VALID,916.468,VALID,0,VALID,97.3968,VALID,0,VALID,18.8839,VALID,128,VALID,1.27305,
2011-07-27, 03:28:04,VALID,916.453,VALID,0,VALID,97.412,VALID,0,VALID,18.8839,VALID,133,VALID,1.47266,
2011-07-27, 03:29:04,VALID,916.43,VALID,0,VALID,97.412,VALID,0,VALID,18.9048,VALID,135,VALID,1.40313,
2011-07-27, 03:30:04,VALID,916.451,VALID,0,VALID,97.4273,VALID,0,VALID,18.8644,VALID,115,VALID,1.38477,
2011-07-27, 03:31:04,VALID,916.421,VALID,0,VALID,97.412,VALID,0,VALID,18.8644,VALID,129,VALID,1.38633,
2011-07-27, 03:32:04,VALID,916.417,VALID,0,VALID,97.412,VALID,0,VALID,18.8644,VALID,127,VALID,0.773828,
2011-07-27, 03:33:04,VALID,916.384,VALID,0,VALID,97.4273,VALID,0,VALID,18.8644,VALID,129,VALID,0.897656,
2011-07-27, 03:34:04,VALID,916.368,VALID,0,VALID,97.4196,VALID,0,VALID,18.8644,VALID,124,VALID,0.626562,
2011-07-27, 03:35:04,VALID,916.345,VALID,0,VALID,97.4273,VALID,0,VALID,18.8449,VALID,124,VALID,0.815234,
2011-07-27, 03:36:04,VALID,916.308,VALID,0,VALID,97.3663,VALID,0,VALID,18.7864,VALID,124,VALID,0.957422,
2011-07-27, 03:37:04,VALID,916.314,VALID,0,VALID,97.3891,VALID,0,VALID,18.8073,VALID,124,VALID,0.989062,
2011-07-27, 03:38:04,VALID,916.289,VALID,0,VALID,97.4044,VALID,0,VALID,18.7878,VALID,124,VALID,1.04023,
2011-07-27, 03:39:04,VALID,916.311,VALID,0,VALID,97.412,VALID,0,VALID,18.7683,VALID,124,VALID,1.43086,
2011-07-27, 03:40:04,VALID,916.365,VALID,0,VALID,97.4044,VALID,0,VALID,18.7279,VALID,124,VALID,1.17969,
2011-07-27, 03:41:04,VALID,916.386,VALID,0,VALID,97.4044,VALID,0,VALID,18.7084,VALID,124,VALID,0.956641,
2011-07-27, 03:42:04,VALID,916.401,VALID,0,VALID,97.4196,VALID,0,VALID,18.6694,VALID,124,VALID,0.963281,
2011-07-27, 03:43:04,VALID,916.423,VALID,0,VALID,97.4349,VALID,0,VALID,18.6499,VALID,124,VALID,0.977734,
2011-07-27, 03:44:04,VALID,916.417,VALID,0,VALID,97.4501,VALID,0,VALID,18.6499,VALID,124,VALID,0.876562,
2011-07-27, 03:45:04,VALID,916.346,VALID,0,VALID,97.4501,VALID,0,VALID,18.6499,VALID,139,VALID,0.653906,
2011-07-27, 03:46:04,VALID,916.3,VALID,0,VALID,97.473,VALID,0,VALID,18.6708,VALID,131,VALID,0.812891,
2011-07-27, 03:47:04,VALID,916.24,VALID,0,VALID,97.473,VALID,0,VALID,18.6694,VALID,162,VALID,0.60625,